| time (UTC) | temp F | wind direction | speed MPH | gust MPH | rain 1hr in | rain 24hr in | rain mn in | humidity % | barometer mb |
| 20260504023309 | 62 | 293 | 1.0 | 1.0 | 0.00 | 0.01 | 0.01 | 41 | 1007.8 |
| 20260504022805 | 62 | 19 | 0.0 | 1.0 | 0.00 | 0.01 | 0.01 | 41 | 1007.7 |
| 20260504022301 | 62 | 2 | 1.0 | 1.0 | 0.00 | 0.01 | 0.01 | 41 | 1007.7 |
| 20260504021758 | 63 | 17 | 1.0 | 1.0 | 0.00 | 0.01 | 0.01 | 39 | 1007.7 |
| 20260504021256 | 63 | 319 | 1.0 | 2.0 | 0.00 | 0.01 | 0.01 | 38 | 1007.7 |
| 20260504020752 | 64 | 2 | 1.0 | 1.0 | 0.00 | 0.01 | 0.01 | 38 | 1007.9 |
| 20260504020249 | 64 | 324 | 2.0 | 2.0 | 0.00 | 0.01 | 0.01 | 38 | 1007.7 |
| 20260504015745 | 64 | 331 | 3.0 | 3.0 | 0.00 | 0.01 | 0.01 | 38 | 1007.6 |
| 20260504015242 | 64 | 35 | 1.0 | 2.0 | 0.00 | 0.01 | 0.01 | 37 | 1007.7 |
| 20260504014737 | 65 | 40 | 1.0 | 1.0 | 0.00 | 0.01 | 0.01 | 37 | 1007.6 |
| 20260504014234 | 66 | 307 | 1.0 | 2.0 | 0.00 | 0.01 | 0.01 | 35 | 1007.7 |
| 20260504013732 | 66 | 312 | 1.0 | 2.0 | 0.00 | 0.01 | 0.01 | 35 | 1007.6 |
| 20260504013229 | 67 | 260 | 2.0 | 3.0 | 0.00 | 0.01 | 0.01 | 34 | 1007.3 |
| 20260504012726 | 67 | 286 | 2.0 | 2.0 | 0.00 | 0.01 | 0.01 | 33 | 1007.5 |
| 20260504012224 | 68 | 291 | 4.0 | 7.0 | 0.00 | 0.01 | 0.01 | 33 | 1007.4 |
| 20260504011720 | 68 | 313 | 3.0 | 4.0 | 0.00 | 0.01 | 0.01 | 32 | 1007.2 |
| 20260504011217 | 68 | 273 | 1.0 | 2.0 | 0.00 | 0.01 | 0.01 | 32 | 1007.2 |
| 20260504010713 | 69 | 328 | 4.0 | 4.0 | 0.00 | 0.01 | 0.01 | 31 | 1007.1 |
| 20260504010209 | 69 | 269 | 3.0 | 4.0 | 0.00 | 0.01 | 0.01 | 31 | 1007.0 |
| 20260504005705 | 70 | 279 | 3.0 | 4.0 | 0.00 | 0.01 | 0.01 | 30 | 1006.8 |
| 20260504005203 | 70 | 289 | 5.0 | 6.0 | 0.00 | 0.01 | 0.01 | 30 | 1006.9 |
| 20260504004700 | 70 | 251 | 6.0 | 8.0 | 0.00 | 0.01 | 0.01 | 29 | 1007.0 |
| 20260504004157 | 71 | 295 | 4.0 | 4.0 | 0.00 | 0.01 | 0.01 | 29 | 1007.1 |
| 20260504003653 | 71 | 265 | 4.0 | 6.0 | 0.00 | 0.01 | 0.01 | 28 | 1007.0 |
| 20260504003151 | 72 | 243 | 3.0 | 4.0 | 0.00 | 0.01 | 0.01 | 28 | 1006.9 |
| 20260504002647 | 72 | 243 | 2.0 | 3.0 | 0.00 | 0.01 | 0.01 | 27 | 1006.9 |
| 20260504002145 | 72 | 289 | 3.0 | 4.0 | 0.00 | 0.01 | 0.01 | 27 | 1006.9 |
| 20260504001643 | 72 | 281 | 5.0 | 6.0 | 0.00 | 0.01 | 0.01 | 27 | 1006.8 |
| 20260504001138 | 73 | 278 | 4.0 | 6.0 | 0.00 | 0.01 | 0.01 | 28 | 1006.9 |
| 20260504000636 | 73 | 281 | 4.0 | 4.0 | 0.00 | 0.01 | 0.01 | 27 | 1006.7 |
| 20260504000133 | 73 | 288 | 6.0 | 8.0 | 0.00 | 0.01 | 0.01 | 27 | 1006.8 |
| 20260503235631 | 73 | 324 | 6.0 | 7.0 | 0.00 | 0.01 | 0.01 | 27 | 1006.8 |
| 20260503235127 | 73 | 309 | 4.0 | 4.0 | 0.00 | 0.01 | 0.01 | 25 | 1006.8 |
| 20260503234626 | 73 | 297 | 6.0 | 7.0 | 0.00 | 0.01 | 0.01 | 24 | 1006.7 |
| 20260503234123 | 74 | 292 | 8.0 | 10.0 | 0.00 | 0.01 | 0.01 | 24 | 1006.6 |
| 20260503233620 | 74 | 349 | 5.0 | 7.0 | 0.00 | 0.01 | 0.01 | 25 | 1006.7 |
| 20260503233116 | 74 | 303 | 8.0 | 9.0 | 0.00 | 0.01 | 0.01 | 25 | 1006.6 |
| 20260503232613 | 74 | 298 | 5.0 | 8.0 | 0.00 | 0.01 | 0.01 | 25 | 1006.7 |
| 20260503232110 | 74 | 323 | 9.0 | 10.0 | 0.00 | 0.01 | 0.01 | 25 | 1006.7 |
| 20260503231608 | 74 | 335 | 5.0 | 6.0 | 0.00 | 0.01 | 0.01 | 25 | 1006.5 |
| 20260503231104 | 75 | 312 | 9.0 | 15.0 | 0.00 | 0.01 | 0.01 | 25 | 1006.8 |
| 20260503230601 | 74 | 297 | 9.0 | 10.0 | 0.00 | 0.01 | 0.01 | 25 | 1006.6 |
| 20260503230058 | 75 | 265 | 9.0 | 10.0 | 0.00 | 0.01 | 0.01 | 24 | 1006.7 |
| 20260503225555 | 75 | 291 | 8.0 | 10.0 | 0.00 | 0.01 | 0.01 | 25 | 1006.5 |
| 20260503225050 | 75 | 12 | 9.0 | 11.0 | 0.00 | 0.01 | 0.01 | 25 | 1006.6 |
| 20260503224548 | 75 | 258 | 7.0 | 10.0 | 0.00 | 0.01 | 0.01 | 25 | 1006.4 |
| 20260503224046 | 75 | 286 | 7.0 | 14.0 | 0.00 | 0.01 | 0.01 | 25 | 1006.5 |
| 20260503223544 | 75 | 301 | 13.0 | 17.0 | 0.00 | 0.01 | 0.01 | 27 | 1006.4 |
| 20260503223039 | 76 | 290 | 5.0 | 6.0 | 0.00 | 0.01 | 0.01 | 27 | 1006.3 |
| 20260503222537 | 75 | 305 | 5.0 | 6.0 | 0.00 | 0.01 | 0.01 | 27 | 1006.4 |
| 20260503222035 | 75 | 0 | 8.0 | 9.0 | 0.00 | 0.01 | 0.01 | 26 | 1006.4 |
| 20260503221533 | 75 | 265 | 5.0 | 7.0 | 0.00 | 0.01 | 0.01 | 26 | 1006.4 |
| 20260503221030 | 75 | 334 | 9.0 | 11.0 | 0.00 | 0.01 | 0.01 | 27 | 1006.4 |
| 20260503220526 | 75 | 302 | 5.0 | 6.0 | 0.00 | 0.01 | 0.01 | 27 | 1006.3 |
| 20260503220023 | 76 | 300 | 6.0 | 7.0 | 0.00 | 0.01 | 0.01 | 27 | 1006.3 |
| 20260503215520 | 76 | 280 | 10.0 | 14.0 | 0.00 | 0.01 | 0.01 | 27 | 1006.3 |
| 20260503215017 | 75 | 314 | 6.0 | 8.0 | 0.00 | 0.01 | 0.01 | 27 | 1006.4 |
| 20260503214516 | 75 | 270 | 7.0 | 8.0 | 0.00 | 0.01 | 0.01 | 28 | 1006.3 |
| 20260503214012 | 75 | 296 | 6.0 | 8.0 | 0.00 | 0.01 | 0.01 | 27 | 1006.4 |
| 20260503213510 | 75 | 251 | 8.0 | 11.0 | 0.00 | 0.01 | 0.01 | 27 | 1006.3 |
| 20260503213007 | 75 | 298 | 5.0 | 7.0 | 0.00 | 0.01 | 0.01 | 28 | 1006.3 |
| 20260503212504 | 75 | 281 | 6.0 | 8.0 | 0.00 | 0.01 | 0.01 | 28 | 1006.2 |
| 20260503212001 | 75 | 308 | 7.0 | 8.0 | 0.00 | 0.01 | 0.01 | 29 | 1006.4 |
| 20260503211458 | 76 | 304 | 10.0 | 15.0 | 0.00 | 0.01 | 0.01 | 30 | 1006.1 |
| 20260503210954 | 75 | 263 | 6.0 | 8.0 | 0.00 | 0.01 | 0.01 | 29 | 1006.2 |
| 20260503210451 | 75 | 294 | 9.0 | 13.0 | 0.00 | 0.01 | 0.01 | 28 | 1006.3 |
| 20260503205951 | 75 | 327 | 7.0 | 8.0 | 0.00 | 0.01 | 0.01 | 30 | 1006.4 |
| 20260503205449 | 75 | 251 | 3.0 | 4.0 | 0.00 | 0.01 | 0.01 | 30 | 1006.6 |
| 20260503204944 | 75 | 274 | 8.0 | 9.0 | 0.00 | 0.01 | 0.01 | 29 | 1006.4 |
| 20260503204442 | 76 | 270 | 8.0 | 11.0 | 0.00 | 0.01 | 0.01 | 28 | 1006.4 |
| 20260503203939 | 75 | 262 | 9.0 | 10.0 | 0.00 | 0.01 | 0.01 | 27 | 1006.2 |
| 20260503203437 | 75 | 263 | 9.0 | 11.0 | 0.00 | 0.01 | 0.01 | 28 | 1006.4 |
| 20260503202933 | 75 | 307 | 9.0 | 10.0 | 0.00 | 0.01 | 0.01 | 29 | 1006.6 |
| 20260503202431 | 76 | 306 | 4.0 | 6.0 | 0.00 | 0.01 | 0.01 | 29 | 1006.6 |
| 20260503201930 | 75 | 202 | 4.0 | 6.0 | 0.00 | 0.01 | 0.01 | 29 | 1006.8 |
| 20260503201426 | 74 | 285 | 10.0 | 11.0 | 0.00 | 0.01 | 0.01 | 29 | 1006.8 |
| 20260503200924 | 75 | 233 | 8.0 | 15.0 | 0.00 | 0.01 | 0.01 | 30 | 1006.7 |
| 20260503200420 | 75 | 263 | 13.0 | 16.0 | 0.00 | 0.01 | 0.01 | 29 | 1006.7 |
| 20260503195917 | 74 | 302 | 5.0 | 7.0 | 0.00 | 0.01 | 0.01 | 31 | 1006.8 |
| 20260503195414 | 74 | 292 | 4.0 | 6.0 | 0.00 | 0.01 | 0.01 | 30 | 1006.8 |
| 20260503194911 | 74 | 334 | 5.0 | 8.0 | 0.00 | 0.01 | 0.01 | 31 | 1007.0 |
| 20260503194407 | 74 | 284 | 9.0 | 11.0 | 0.00 | 0.01 | 0.01 | 31 | 1006.9 |
| 20260503193903 | 74 | 223 | 9.0 | 14.0 | 0.00 | 0.01 | 0.01 | 32 | 1007.0 |
| 20260503193359 | 73 | 268 | 3.0 | 4.0 | 0.00 | 0.01 | 0.01 | 33 | 1007.1 |
| 20260503192854 | 74 | 280 | 13.0 | 15.0 | 0.00 | 0.01 | 0.01 | 31 | 1007.1 |
| 20260503192350 | 74 | 332 | 10.0 | 11.0 | 0.00 | 0.01 | 0.01 | 34 | 1007.0 |
| 20260503191847 | 73 | 325 | 2.0 | 3.0 | 0.00 | 0.01 | 0.01 | 34 | 1007.2 |
| 20260503191344 | 73 | 269 | 10.0 | 14.0 | 0.00 | 0.01 | 0.01 | 33 | 1007.2 |
| 20260503190841 | 73 | 300 | 9.0 | 11.0 | 0.00 | 0.01 | 0.01 | 34 | 1007.2 |
| 20260503190338 | 73 | 276 | 6.0 | 7.0 | 0.00 | 0.01 | 0.01 | 34 | 1007.2 |
| 20260503185835 | 73 | 262 | 5.0 | 7.0 | 0.00 | 0.01 | 0.01 | 34 | 1007.3 |
| 20260503185331 | 72 | 329 | 1.0 | 2.0 | 0.00 | 0.01 | 0.01 | 34 | 1007.3 |
| 20260503184826 | 72 | 268 | 9.0 | 10.0 | 0.00 | 0.01 | 0.01 | 35 | 1007.3 |
| 20260503184322 | 71 | 277 | 11.0 | 15.0 | 0.00 | 0.01 | 0.01 | 35 | 1007.4 |
| 20260503183818 | 71 | 253 | 6.0 | 7.0 | 0.00 | 0.01 | 0.01 | 35 | 1007.5 |
| 20260503183315 | 71 | 258 | 8.0 | 10.0 | 0.00 | 0.01 | 0.01 | 36 | 1007.5 |
| 20260503182813 | 71 | 270 | 7.0 | 10.0 | 0.00 | 0.01 | 0.01 | 36 | 1007.5 |
| 20260503182312 | 71 | 270 | 11.0 | 13.0 | 0.00 | 0.01 | 0.01 | 36 | 1007.6 |
| 20260503181809 | 70 | 249 | 5.0 | 6.0 | 0.00 | 0.01 | 0.01 | 37 | 1007.8 |
| 20260503181306 | 69 | 137 | 6.0 | 8.0 | 0.00 | 0.01 | 0.01 | 36 | 1007.9 |
| 20260503180802 | 70 | 248 | 6.0 | 9.0 | 0.00 | 0.01 | 0.01 | 37 | 1008.0 |
| 20260503180300 | 69 | 279 | 3.0 | 7.0 | 0.00 | 0.01 | 0.01 | 37 | 1007.9 |
| 20260503175756 | 69 | 277 | 11.0 | 14.0 | 0.00 | 0.01 | 0.01 | 37 | 1008.1 |
| 20260503175254 | 69 | 237 | 2.0 | 3.0 | 0.00 | 0.01 | 0.01 | 37 | 1008.2 |
| 20260503174749 | 68 | 292 | 6.0 | 8.0 | 0.00 | 0.01 | 0.01 | 38 | 1008.3 |
| 20260503174248 | 68 | 302 | 12.0 | 16.0 | 0.00 | 0.01 | 0.01 | 37 | 1008.2 |
| 20260503173748 | 68 | 257 | 6.0 | 7.0 | 0.00 | 0.01 | 0.01 | 38 | 1008.4 |
| 20260503173244 | 68 | 280 | 9.0 | 10.0 | 0.00 | 0.01 | 0.01 | 38 | 1008.4 |
| 20260503172741 | 67 | 279 | 7.0 | 10.0 | 0.00 | 0.01 | 0.01 | 39 | 1008.3 |
| 20260503172238 | 68 | 344 | 8.0 | 11.0 | 0.00 | 0.01 | 0.01 | 38 | 1008.6 |
| 20260503171735 | 67 | 284 | 3.0 | 3.0 | 0.00 | 0.01 | 0.01 | 39 | 1008.4 |
| 20260503171232 | 67 | 136 | 2.0 | 3.0 | 0.00 | 0.01 | 0.01 | 38 | 1008.6 |
| 20260503170729 | 66 | 122 | 3.0 | 4.0 | 0.00 | 0.01 | 0.01 | 39 | 1008.6 |
| 20260503170226 | 65 | 26 | 5.0 | 7.0 | 0.00 | 0.01 | 0.01 | 39 | 1008.8 |
| 20260503160147 | 61 | 258 | 9.0 | 11.0 | 0.00 | 0.01 | 0.01 | 43 | 1009.4 |
| 20260503150617 | 60 | 209 | 8.0 | 14.0 | 0.00 | 0.01 | 0.01 | 44 | 1009.8 |
| 20260503150113 | 59 | 104 | 4.0 | 6.0 | 0.00 | 0.01 | 0.01 | 45 | 1009.9 |
| 20260503131007 | 52 | 192 | 4.0 | 4.0 | 0.00 | 0.01 | 0.01 | 61 | 1011.2 |
| 20260503130504 | 52 | 133 | 4.0 | 4.0 | 0.00 | 0.01 | 0.01 | 59 | 1011.5 |
| 20260503110355 | 50 | 132 | 3.0 | 6.0 | 0.00 | 0.01 | 0.01 | 62 | 1013.7 |
| 20260503090246 | 52 | 34 | 1.0 | 1.0 | 0.00 | 0.01 | 0.01 | 58 | 1014.6 |
| 20260503081208 | 54 | 282 | 9.0 | 14.0 | 0.00 | 0.00 | 0.00 | 47 | 1014.3 |
| 20260503080703 | 52 | 262 | 6.0 | 9.0 | 0.00 | 0.00 | 0.00 | 49 | 1014.1 |
| 20260503080200 | 53 | 262 | 6.0 | 8.0 | 0.00 | 0.00 | 0.00 | 49 | 1014.1 |
| 20260503072637 | 52 | 111 | 3.0 | 4.0 | 0.00 | 0.00 | 0.00 | 47 | 1014.2 |
| 20260503072134 | 52 | 47 | 3.0 | 4.0 | 0.00 | 0.00 | 0.00 | 47 | 1014.2 |
| 20260503071631 | 53 | 270 | 2.0 | 2.0 | 0.00 | 0.00 | 0.00 | 47 | 1014.2 |
| 20260503071127 | 52 | 349 | 2.0 | 3.0 | 0.00 | 0.00 | 0.00 | 47 | 1014.0 |
| 20260503070625 | 52 | 321 | 4.0 | 8.0 | 0.00 | 0.00 | 0.00 | 47 | 1014.1 |
| 20260503070123 | 52 | 51 | 2.0 | 2.0 | 0.00 | 0.00 | 0.00 | 47 | 1014.4 |
| 20260503055043 | 52 | 59 | 1.0 | 2.0 | 0.00 | 0.00 | 0.00 | 47 | 1014.9 |
| 20260503054539 | 52 | 248 | 2.0 | 3.0 | 0.00 | 0.00 | 0.00 | 46 | 1014.9 |
| 20260503054037 | 52 | 220 | 4.0 | 6.0 | 0.00 | 0.00 | 0.00 | 46 | 1015.0 |
| 20260503053535 | 52 | 46 | 1.0 | 2.0 | 0.00 | 0.00 | 0.00 | 46 | 1015.0 |
| 20260503053032 | 52 | 88 | 2.0 | 3.0 | 0.00 | 0.00 | 0.00 | 47 | 1015.0 |
| 20260503052529 | 52 | 124 | 2.0 | 4.0 | 0.00 | 0.00 | 0.00 | 47 | 1015.0 |
| 20260503052025 | 52 | 342 | 4.0 | 6.0 | 0.00 | 0.00 | 0.00 | 47 | 1015.1 |
| 20260503051520 | 52 | 180 | 2.0 | 3.0 | 0.00 | 0.00 | 0.00 | 47 | 1015.2 |
| 20260503051019 | 52 | 338 | 1.0 | 2.0 | 0.00 | 0.00 | 0.00 | 47 | 1015.2 |
| 20260503050514 | 52 | 304 | 3.0 | 6.0 | 0.00 | 0.00 | 0.00 | 47 | 1015.3 |
| 20260503050012 | 52 | 90 | 1.0 | 2.0 | 0.00 | 0.00 | 0.00 | 47 | 1015.2 |
| 20260503045509 | 52 | 97 | 2.0 | 2.0 | 0.00 | 0.00 | 0.00 | 47 | 1015.3 |
| 20260503045006 | 52 | 345 | 2.0 | 3.0 | 0.00 | 0.00 | 0.00 | 47 | 1015.3 |
| 20260503044502 | 52 | 326 | 2.0 | 3.0 | 0.00 | 0.00 | 0.00 | 47 | 1015.4 |
| 20260503044000 | 52 | 344 | 1.0 | 2.0 | 0.00 | 0.00 | 0.00 | 47 | 1015.3 |
| 20260503043456 | 52 | 84 | 1.0 | 1.0 | 0.00 | 0.00 | 0.00 | 47 | 1015.2 |
| 20260503042952 | 52 | 75 | 3.0 | 4.0 | 0.00 | 0.00 | 0.00 | 46 | 1015.5 |
| 20260503042449 | 52 | 328 | 1.0 | 2.0 | 0.00 | 0.00 | 0.00 | 47 | 1015.5 |
| 20260503041946 | 52 | 342 | 4.0 | 6.0 | 0.00 | 0.00 | 0.00 | 47 | 1015.5 |
| 20260503041443 | 52 | 36 | 3.0 | 4.0 | 0.00 | 0.00 | 0.00 | 47 | 1015.7 |
| 20260503040940 | 52 | 61 | 2.0 | 6.0 | 0.00 | 0.00 | 0.00 | 47 | 1015.6 |
| 20260503040437 | 52 | 105 | 1.0 | 2.0 | 0.00 | 0.00 | 0.00 | 47 | 1015.6 |
| 20260503035935 | 52 | 137 | 2.0 | 3.0 | 0.00 | 0.00 | 0.00 | 47 | 1015.7 |
| 20260503035431 | 52 | 162 | 2.0 | 3.0 | 0.00 | 0.00 | 0.00 | 46 | 1015.9 |
| 20260503034929 | 52 | 87 | 2.0 | 3.0 | 0.00 | 0.00 | 0.00 | 46 | 1015.9 |
| 20260503034426 | 52 | 71 | 1.0 | 2.0 | 0.00 | 0.00 | 0.00 | 45 | 1016.2 |
| 20260503033923 | 52 | 228 | 2.0 | 2.0 | 0.00 | 0.00 | 0.00 | 45 | 1016.2 |
| 20260503033421 | 52 | 279 | 2.0 | 3.0 | 0.00 | 0.00 | 0.00 | 45 | 1016.0 |
| 20260503032919 | 52 | 42 | 2.0 | 3.0 | 0.00 | 0.00 | 0.00 | 45 | 1016.4 |
| 20260503032417 | 52 | 134 | 2.0 | 2.0 | 0.00 | 0.00 | 0.00 | 44 | 1016.4 |
| 20260503031914 | 52 | 83 | 0.0 | 1.0 | 0.00 | 0.00 | 0.00 | 44 | 1016.3 |
| 20260503031412 | 52 | 345 | 3.0 | 4.0 | 0.00 | 0.00 | 0.00 | 44 | 1016.2 |
| 20260503030908 | 52 | 52 | 2.0 | 2.0 | 0.00 | 0.00 | 0.00 | 44 | 1016.5 |
| 20260503030405 | 53 | 23 | 2.0 | 3.0 | 0.00 | 0.00 | 0.00 | 44 | 1016.4 |
| 20260503025901 | 52 | 176 | 1.0 | 2.0 | 0.00 | 0.00 | 0.00 | 44 | 1016.4 |
| 20260503025359 | 53 | 299 | 1.0 | 1.0 | 0.00 | 0.00 | 0.00 | 44 | 1016.7 |
| 20260503024856 | 53 | 5 | 1.0 | 2.0 | 0.00 | 0.00 | 0.00 | 43 | 1016.6 |
| 20260503024353 | 53 | 67 | 1.0 | 1.0 | 0.00 | 0.00 | 0.00 | 43 | 1016.6 |
| 20260503023850 | 53 | 44 | 1.0 | 2.0 | 0.00 | 0.00 | 0.00 | 43 | 1016.5 |